Location: Broletto
(44.6000°N, 10.5833°E)
Time: 01:39:19
(UTC+00:00)

MetOp-A - Pass Details

Date: 18 April 2021
Orbit: 819 x 821 km, 98.5° (Epoch: 08 May)

Event Time Altitude Azimuth Distance (km) Brightness Sun altitude
Rises 18:32:33 0° 155° (SSE) 3,340 6.9 -5.2°
Reaches altitude 10° 18:34:54 10° 153° (SSE) 2,411 6.1 -5.6°
Maximum altitude 18:40:11 65° 72° (ENE) 899 4.2 -6.5°
Drops below altitude 10° 18:45:30 10° 352° (N) 2,426 7.1 -7.4°
Sets 18:47:52 0° 350° (N) 3,362 7.9 -7.7°
